Location: Borojevi?i
(45.0486°N, 16.2297°E)
Time: 03:34:25
(UTC+00:00)

USA 234 - Pass Details

Date: 08 August 2020
Orbit: 1101 x 1107 km, 123.0° (Epoch: 25 September)

Event Time Altitude Azimuth Distance (km) Brightness Sun altitude
Exits shadow 22:06:04 27° 237° (WSW) 1,976 4.4 -27.9°
Drops below altitude 10° 22:11:15 10° 290° (WNW) 2,962 5.9 -28.1°
Sets 22:14:13 0° 302° (WNW) 3,924 6.8 -28.2°
